This demonstration page uses our WeatherBlox Daily Observations layout. Learn more.

Left ArrowRight Arrow

Hourly Observations for April 8, 2021

Temp ( °F °C ) Dew Point ( °F °C ) Humidity (%) Winds ( mph kmh ) Pressure ( in mb ) Visibility ( mi km ) Precip ( " mm )
12:53 am 00:53 Clear 66 18.9 52 11.1 61 61 SSW 3 6 29.92 1013 10 16 0.00 0.00
1:53 am 01:53 Clear 64 17.8 52 11.1 65 65 Calm 29.92 1013 10 16 0.00 0.00
2:53 am 02:53 Clear 61 16.1 53 11.7 75 75 Calm 29.91 1013 10 16 0.00 0.00
3:53 am 03:53 Clear 58 14.4 53 11.7 84 84 Calm 29.91 1013 10 16 0.00 0.00
4:53 am 04:53 Mostly Clear 59 15 54 12.2 83 83 Calm 29.89 1012 10 16 0.00 0.00
5:53 am 05:53 Clear 58 14.4 54 12.2 87 87 Calm 29.89 1012 10 16 0.00 0.00
6:53 am 06:53 Mostly Clear 63 17.2 55 12.8 76 76 S 6 9 29.89 1012 10 16 0.00 0.00
7:53 am 07:53 Partly Cloudy 63 17.2 57 13.9 81 81 S 9 15 29.89 1012 10 16 0.00 0.00
8:53 am 08:53 Sunny 63 17.2 57 13.9 81 81 S 5 7 29.88 1012 10 16 0.00 0.00
9:53 am 09:53 Cloudy 65 18.3 59 15 81 81 SSW 6 9 29.90 1013 10 16 0.00 0.00
10:53 am 10:53 Cloudy 67 19.4 58 14.4 73 73 S 7 11 29.89 1012 10 16 0.00 0.00
11:53 am 11:53 Cloudy 69 20.6 57 13.9 66 66 SSW 9 15 29.89 1012 10 16 0.00 0.00
12:53 pm 12:53 Mostly Cloudy 73 22.8 56 13.3 55 55 S 9 15 29.86 1011 10 16 0.00 0.00
1:53 pm 13:53 Cloudy 73 22.8 57 13.9 57 57 SSW 9 15 29.85 1011 10 16 0.00 0.00
2:53 pm 14:53 Cloudy 73 22.8 57 13.9 57 57 S 15 24 29.84 1011 10 16 0.00 0.00
3:53 pm 15:53 Mostly Cloudy 75 23.9 57 13.9 54 54 SSW 8 13 29.81 1010 10 16 0.00 0.00
4:53 pm 16:53 Mostly Cloudy 77 25 58 14.4 52 52 SSE 10 17 29.80 1009 10 16 0.00 0.00
5:53 pm 17:53 Mostly Sunny 78 25.6 57 13.9 48 48 SSW 12 19 29.78 1009 10 16 0.00 0.00
6:53 pm 18:53 Partly Cloudy 78 25.6 56 13.3 47 47 SW 8 13 29.79 1009 10 16 0.00 0.00
7:53 pm 19:53 Sunny 77 25 54 12.2 45 45 SSW 10 17 29.80 1009 10 16 0.00 0.00
8:53 pm 20:53 Clear 74 23.3 54 12.2 50 50 S 3 6 29.82 1010 10 16 0.00 0.00
9:53 pm 21:53 Clear 70 21.1 55 12.8 59 59 Calm 29.84 1011 10 16 0.00 0.00
10:53 pm 22:53 Clear 64 17.8 56 13.3 75 75 Calm 29.86 1011 10 16 0.00 0.00
11:53 pm 23:53 Clear 60 15.6 56 13.3 86 86 Calm 29.87 1012 10 16 0.00 0.00

Powered by AerisWeather